TimeCDT,TemperatureF,Dew PointF,Humidity,Sea Level PressureIn,VisibilityMPH,Wind Direction,Wind SpeedMPH,Gust SpeedMPH,PrecipitationIn,Events,Conditions,WindDirDegrees,DateUTC
12:53 AM,73.0,64.9,76,30.00,10.0,NE,3.5,-,N/A,,Clear,50,2013-07-03 05:53:00
1:53 AM,72.0,64.9,78,29.99,10.0,NE,4.6,-,N/A,,Clear,40,2013-07-03 06:53:00
2:53 AM,71.1,64.9,81,29.98,10.0,Calm,Calm,-,N/A,,Clear,0,2013-07-03 07:53:00
3:53 AM,71.1,64.9,81,29.98,10.0,NE,3.5,-,N/A,,Clear,40,2013-07-03 08:53:00
4:53 AM,70.0,64.9,84,29.98,10.0,NE,3.5,-,N/A,,Clear,40,2013-07-03 09:53:00
5:53 AM,69.1,64.9,87,29.99,10.0,NNE,4.6,-,N/A,,Clear,30,2013-07-03 10:53:00
6:53 AM,70.0,64.9,84,29.99,9.0,NE,5.8,-,N/A,,Clear,40,2013-07-03 11:53:00
7:53 AM,73.9,66.0,76,30.01,10.0,NE,5.8,-,N/A,,Clear,50,2013-07-03 12:53:00
8:53 AM,79.0,66.0,64,30.02,10.0,NE,8.1,-,N/A,,Clear,40,2013-07-03 13:53:00
9:53 AM,82.0,66.0,58,30.03,10.0,NE,8.1,-,N/A,,Clear,50,2013-07-03 14:53:00
10:53 AM,84.0,66.9,56,30.03,10.0,ENE,6.9,-,N/A,,Clear,70,2013-07-03 15:53:00
11:53 AM,87.1,68.0,53,30.01,10.0,ENE,5.8,-,N/A,,Clear,60,2013-07-03 16:53:00
12:53 PM,89.1,64.0,43,30.01,10.0,NE,11.5,17.3,N/A,,Clear,40,2013-07-03 17:53:00
1:53 PM,89.1,63.0,42,29.98,10.0,Variable,6.9,-,N/A,,Clear,0,2013-07-03 18:53:00
2:53 PM,91.0,63.0,39,29.96,10.0,NNE,11.5,-,N/A,,Clear,20,2013-07-03 19:53:00
3:53 PM,90.0,63.0,40,29.96,10.0,NNE,12.7,17.3,N/A,,Partly Cloudy,30,2013-07-03 20:53:00
4:53 PM,91.0,62.1,38,29.95,10.0,NNE,10.4,-,N/A,,Scattered Clouds,20,2013-07-03 21:53:00
5:53 PM,84.0,68.0,58,29.94,10.0,ESE,5.8,-,N/A,,Mostly Cloudy,110,2013-07-03 22:53:00
6:53 PM,82.9,66.9,58,29.94,10.0,ENE,6.9,-,N/A,,Clear,70,2013-07-03 23:53:00
7:53 PM,80.1,66.9,64,29.95,10.0,ENE,5.8,-,N/A,,Clear,70,2013-07-04 00:53:00
8:53 PM,77.0,68.0,74,29.96,10.0,Calm,Calm,-,N/A,,Clear,0,2013-07-04 01:53:00
9:53 PM,75.0,69.1,82,29.97,10.0,ENE,3.5,-,N/A,,Clear,60,2013-07-04 02:53:00
10:53 PM,73.9,69.1,85,29.98,10.0,Calm,Calm,-,N/A,,Clear,0,2013-07-04 03:53:00
11:53 PM,73.0,69.1,87,29.98,10.0,North,3.5,-,N/A,,Clear,360,2013-07-04 04:53:00